Time,TemperatureF,DewpointF,PressureIn,WindDirection,WindDirectionDegrees,WindSpeedMPH,WindSpeedGustMPH,Humidity,HourlyPrecipIn,Conditions,Clouds,dailyrainin,SoftwareType,DateUTC
2013-02-23 00:00:00,71.6,-99.9,29.96,SSW,205,2.0,-999.0,0,-99.99,,,0.00,weatherlink.com 1.10,2013-02-23 05:00:00,
2013-02-23 00:30:00,70.9,-99.9,29.95,SSW,207,1.0,-999.0,0,-99.99,,,0.00,weatherlink.com 1.10,2013-02-23 05:30:00,
2013-02-23 00:45:00,70.9,-99.9,29.94,SSW,207,1.0,-999.0,0,-99.99,,,0.00,weatherlink.com 1.10,2013-02-23 05:45:00,
2013-02-23 01:00:00,70.9,-99.9,29.94,SSW,207,0.0,-999.0,0,-99.99,,,0.00,weatherlink.com 1.10,2013-02-23 06:00:00,
2013-02-23 01:15:00,70.9,-99.9,29.94,SSW,207,0.0,-999.0,0,-99.99,,,0.00,weatherlink.com 1.10,2013-02-23 06:15:00,
2013-02-23 01:30:00,70.9,-99.9,29.94,SSW,207,0.0,-999.0,0,-99.99,,,0.00,weatherlink.com 1.10,2013-02-23 06:30:00,
2013-02-23 01:45:00,70.9,-99.9,29.94,SW,226,1.0,-999.0,0,-99.99,,,0.00,weatherlink.com 1.10,2013-02-23 06:45:00,
2013-02-23 02:01:00,70.9,-99.9,29.93,SW,222,1.0,-999.0,0,-99.99,,,0.00,weatherlink.com 1.10,2013-02-23 07:01:00,
2013-02-23 02:30:00,70.4,-99.9,29.92,SW,221,2.0,-999.0,0,-99.99,,,0.00,weatherlink.com 1.10,2013-02-23 07:30:00,
2013-02-23 02:46:00,70.4,-99.9,29.92,SW,221,1.0,-999.0,0,-99.99,,,0.00,weatherlink.com 1.10,2013-02-23 07:46:00,
2013-02-23 03:01:00,70.3,-99.9,29.91,SW,221,0.0,-999.0,0,-99.99,,,0.00,weatherlink.com 1.10,2013-02-23 08:01:00,
2013-02-23 03:16:00,69.9,-99.9,29.91,SW,221,0.0,-999.0,0,-99.99,,,0.00,weatherlink.com 1.10,2013-02-23 08:16:00,
2013-02-23 03:31:00,69.8,-99.9,29.91,SW,221,0.0,-999.0,0,-99.99,,,0.00,weatherlink.com 1.10,2013-02-23 08:31:00,
2013-02-23 04:01:00,69.4,-99.9,29.90,SW,221,0.0,-999.0,0,-99.99,,,0.00,weatherlink.com 1.10,2013-02-23 09:01:00,
2013-02-23 04:16:00,69.3,-99.9,29.90,SW,221,1.0,-999.0,0,-99.99,,,0.00,weatherlink.com 1.10,2013-02-23 09:16:00,
2013-02-23 04:46:00,69.3,-99.9,29.90,SW,223,2.0,-999.0,0,-99.99,,,0.00,weatherlink.com 1.10,2013-02-23 09:46:00,
2013-02-23 05:16:00,69.1,-99.9,29.90,SSW,199,2.0,-999.0,0,-99.99,,,0.00,weatherlink.com 1.10,2013-02-23 10:16:00,
2013-02-23 05:31:00,68.9,-99.9,29.91,SSW,205,0.0,-999.0,0,-99.99,,,0.00,weatherlink.com 1.10,2013-02-23 10:31:00,
2013-02-23 05:46:00,68.8,-99.9,29.91,SSW,205,0.0,-999.0,0,-99.99,,,0.00,weatherlink.com 1.10,2013-02-23 10:46:00,
2013-02-23 06:02:00,68.6,-99.9,29.91,SSW,204,1.0,-999.0,0,-99.99,,,0.00,weatherlink.com 1.10,2013-02-23 11:02:00,
2013-02-23 06:17:00,68.6,-99.9,29.91,SSW,207,3.0,-999.0,0,-99.99,,,0.00,weatherlink.com 1.10,2013-02-23 11:17:00,
2013-02-23 06:32:00,68.3,-99.9,29.91,SSW,207,5.0,-999.0,0,-99.99,,,0.00,weatherlink.com 1.10,2013-02-23 11:32:00,
2013-02-23 06:47:00,68.1,-99.9,29.91,SSW,207,1.0,-999.0,0,-99.99,,,0.00,weatherlink.com 1.10,2013-02-23 11:47:00,
2013-02-23 07:02:00,68.1,-99.9,29.91,SSW,205,4.0,-999.0,0,-99.99,,,0.00,weatherlink.com 1.10,2013-02-23 12:02:00,
2013-02-23 07:17:00,68.3,-99.9,29.91,SSW,203,2.0,-999.0,0,-99.99,,,0.00,weatherlink.com 1.10,2013-02-23 12:17:00,
2013-02-23 07:32:00,68.8,-99.9,29.91,SSW,208,3.0,-999.0,0,-99.99,,,0.00,weatherlink.com 1.10,2013-02-23 12:32:00,
2013-02-23 07:47:00,68.9,-99.9,29.92,SSW,206,4.0,-999.0,0,-99.99,,,0.00,weatherlink.com 1.10,2013-02-23 12:47:00,
2013-02-23 08:03:00,69.3,-99.9,29.92,SW,217,2.0,-999.0,0,-99.99,,,0.00,weatherlink.com 1.10,2013-02-23 13:03:00,
2013-02-23 08:18:00,69.6,-99.9,29.92,SSW,212,2.0,-999.0,0,-99.99,,,0.00,weatherlink.com 1.10,2013-02-23 13:18:00,
2013-02-23 08:32:00,70.3,-99.9,29.93,SW,217,7.0,-999.0,0,-99.99,,,0.00,weatherlink.com 1.10,2013-02-23 13:32:00,
2013-02-23 08:47:00,70.8,-99.9,29.93,SSW,204,4.0,-999.0,0,-99.99,,,0.00,weatherlink.com 1.10,2013-02-23 13:47:00,
2013-02-23 09:02:00,71.6,-99.9,29.93,SSW,207,3.0,-999.0,0,-99.99,,,0.00,weatherlink.com 1.10,2013-02-23 14:02:00,
2013-02-23 09:17:00,72.3,-99.9,29.93,South,188,5.0,-999.0,0,-99.99,,,0.00,weatherlink.com 1.10,2013-02-23 14:17:00,
2013-02-23 09:33:00,73.3,-99.9,29.93,WSW,252,9.0,-999.0,0,-99.99,,,0.00,weatherlink.com 1.10,2013-02-23 14:33:00,
2013-02-23 09:48:00,74.6,-99.9,29.93,SW,231,3.0,-999.0,0,-99.99,,,0.00,weatherlink.com 1.10,2013-02-23 14:48:00,
2013-02-23 10:03:00,75.1,-99.9,29.93,SW,231,6.0,-999.0,-999,-99.99,,,0.00,weatherlink.com 1.10,2013-02-23 15:03:00,
2013-02-23 10:33:00,76.0,-19.0,29.92,SSW,211,14.0,-999.0,2,-99.99,,,0.00,weatherlink.com 1.10,2013-02-23 15:33:00,
2013-02-23 10:48:00,76.7,-4.0,29.92,SSW,212,11.0,-999.0,4,-99.99,,,0.00,weatherlink.com 1.10,2013-02-23 15:48:00,
2013-02-23 11:03:00,77.4,8.0,29.91,SW,218,10.0,-999.0,7,-99.99,,,0.00,weatherlink.com 1.10,2013-02-23 16:03:00,
2013-02-23 11:18:00,77.9,19.0,29.91,SW,225,9.0,-999.0,11,-99.99,,,0.00,weatherlink.com 1.10,2013-02-23 16:18:00,
2013-02-23 11:33:00,78.5,27.0,29.90,SSW,213,5.0,-999.0,15,-99.99,,,0.00,weatherlink.com 1.10,2013-02-23 16:33:00,
2013-02-23 11:48:00,79.4,34.0,29.90,SSW,205,6.0,-999.0,19,-99.99,,,0.00,weatherlink.com 1.10,2013-02-23 16:48:00,
2013-02-23 12:03:00,78.3,24.0,29.89,SW,233,7.0,-999.0,13,-99.99,,,0.00,weatherlink.com 1.10,2013-02-23 17:03:00,
2013-02-23 12:18:00,79.9,39.0,29.89,SSW,210,11.0,-999.0,23,-99.99,,,0.00,weatherlink.com 1.10,2013-02-23 17:18:00,
2013-02-23 12:33:00,80.5,39.0,29.89,SSW,205,7.0,-999.0,23,-99.99,,,0.00,weatherlink.com 1.10,2013-02-23 17:33:00,
2013-02-23 12:49:00,79.8,34.0,29.88,SSW,200,7.0,-999.0,19,-99.99,,,0.00,weatherlink.com 1.10,2013-02-23 17:49:00,
2013-02-23 13:04:00,81.1,46.0,29.88,SW,233,9.0,-999.0,29,-99.99,,,0.00,weatherlink.com 1.10,2013-02-23 18:04:00,
2013-02-23 13:19:00,81.6,47.0,29.86,SW,225,3.0,-999.0,30,-99.99,,,0.00,weatherlink.com 1.10,2013-02-23 18:19:00,
2013-02-23 13:34:00,81.1,44.0,29.86,WSW,237,9.0,-999.0,27,-99.99,,,0.00,weatherlink.com 1.10,2013-02-23 18:34:00,
2013-02-23 13:49:00,81.1,50.0,29.85,SSW,212,4.0,-999.0,34,-99.99,,,0.00,weatherlink.com 1.10,2013-02-23 18:49:00,
2013-02-23 14:19:00,82.6,55.0,29.83,SW,233,4.0,-999.0,39,-99.99,,,0.00,weatherlink.com 1.10,2013-02-23 19:19:00,
2013-02-23 14:34:00,81.4,50.0,29.83,WSW,246,4.0,-999.0,33,-99.99,,,0.00,weatherlink.com 1.10,2013-02-23 19:34:00,
2013-02-23 15:04:00,84.0,60.0,29.82,SSW,200,7.0,-999.0,44,-99.99,,,0.00,weatherlink.com 1.10,2013-02-23 20:04:00,
2013-02-23 15:34:00,82.6,54.0,29.81,WSW,243,1.0,-999.0,37,-99.99,,,0.00,weatherlink.com 1.10,2013-02-23 20:34:00,
2013-02-23 15:49:00,81.2,42.0,29.81,SSW,203,4.0,-999.0,25,-99.99,,,0.00,weatherlink.com 1.10,2013-02-23 20:49:00,
2013-02-23 16:04:00,83.6,63.0,29.81,SW,234,4.0,-999.0,50,-99.99,,,0.00,weatherlink.com 1.10,2013-02-23 21:04:00,
2013-02-23 16:20:00,83.6,59.0,29.81,WSW,247,0.0,-999.0,43,-99.99,,,0.00,weatherlink.com 1.10,2013-02-23 21:20:00,
2013-02-23 16:50:00,83.4,59.0,29.80,WSW,242,0.0,-999.0,43,-99.99,,,0.00,weatherlink.com 1.10,2013-02-23 21:50:00,
2013-02-23 17:05:00,80.7,36.0,29.80,ENE,76,0.0,-999.0,20,-99.99,,,0.00,weatherlink.com 1.10,2013-02-23 22:05:00,
2013-02-23 17:20:00,77.7,5.0,29.80,ESE,108,5.0,-999.0,6,-99.99,,,0.00,weatherlink.com 1.10,2013-02-23 22:20:00,
2013-02-23 17:35:00,76.8,-18.0,29.80,ESE,108,3.0,-999.0,2,-99.99,,,0.00,weatherlink.com 1.10,2013-02-23 22:35:00,
2013-02-23 17:50:00,76.5,-99.9,29.80,ESE,119,0.0,-999.0,0,-99.99,,,0.00,weatherlink.com 1.10,2013-02-23 22:50:00,
2013-02-23 18:05:00,76.3,-99.9,29.81,SW,232,0.0,-999.0,0,-99.99,,,0.00,weatherlink.com 1.10,2013-02-23 23:05:00,
2013-02-23 18:35:00,75.4,-99.9,29.82,SSE,150,0.0,-999.0,0,-99.99,,,0.00,weatherlink.com 1.10,2013-02-23 23:35:00,
2013-02-23 19:05:00,75.4,-99.9,29.82,SSE,156,0.0,-999.0,0,-99.99,,,0.00,weatherlink.com 1.10,2013-02-24 00:05:00,
2013-02-23 19:20:00,75.6,-99.9,29.83,South,182,0.0,-999.0,0,-99.99,,,0.00,weatherlink.com 1.10,2013-02-24 00:20:00,
2013-02-23 19:35:00,75.3,-99.9,29.83,SSE,148,0.0,-999.0,0,-99.99,,,0.00,weatherlink.com 1.10,2013-02-24 00:35:00,
2013-02-23 19:51:00,75.1,-99.9,29.83,South,185,3.0,-999.0,0,-99.99,,,0.00,weatherlink.com 1.10,2013-02-24 00:51:00,
2013-02-23 20:06:00,74.9,-99.9,29.83,South,186,2.0,-999.0,0,-99.99,,,0.00,weatherlink.com 1.10,2013-02-24 01:06:00,
2013-02-23 20:21:00,74.6,-99.9,29.83,SSW,194,0.0,-999.0,0,-99.99,,,0.00,weatherlink.com 1.10,2013-02-24 01:21:00,
2013-02-23 20:36:00,73.9,-99.9,29.83,SSW,213,1.0,-999.0,0,-99.99,,,0.00,weatherlink.com 1.10,2013-02-24 01:36:00,
2013-02-23 21:06:00,75.1,-99.9,29.84,WSW,242,5.0,-999.0,0,-99.99,,,0.00,weatherlink.com 1.10,2013-02-24 02:06:00,
2013-02-23 21:21:00,75.3,-99.9,29.84,WSW,249,3.0,-999.0,0,-99.99,,,0.00,weatherlink.com 1.10,2013-02-24 02:21:00,
2013-02-23 22:06:00,74.6,-99.9,29.84,WSW,246,5.0,-999.0,-999,-99.99,,,0.00,weatherlink.com 1.10,2013-02-24 03:06:00,
2013-02-23 22:36:00,73.9,-99.9,29.85,WSW,247,5.0,-999.0,0,-99.99,,,0.00,weatherlink.com 1.10,2013-02-24 03:36:00,
2013-02-23 22:51:00,73.5,-99.9,29.85,WSW,244,6.0,-999.0,0,-99.99,,,0.00,weatherlink.com 1.10,2013-02-24 03:51:00,
2013-02-23 23:22:00,72.8,-99.9,29.86,WSW,248,5.0,-999.0,0,-99.99,,,0.00,weatherlink.com 1.10,2013-02-24 04:22:00,
2013-02-23 23:37:00,72.5,-99.9,29.86,WSW,255,7.0,-999.0,0,-99.99,,,0.00,weatherlink.com 1.10,2013-02-24 04:37:00,
2013-02-23 23:52:00,72.3,-99.9,29.85,WSW,247,7.0,-999.0,0,-99.99,,,0.00,weatherlink.com 1.10,2013-02-24 04:52:00,